• In Belarus
  • List of Countries
  • For 7 days
  • Water Temperature
  • Weather Map
  • Weather Widgets
  • user-avatar
    Login

    Hourly Weather Bregenz

    Today, 9 April, Thursday

    Time Temperature Precipitation Wind Pressure Humidity
    00:00 +5°C° 0 mm 1 mps 649 mmHg 74%
    01:00 +5°C° 0 mm 1 mps 649 mmHg 74%
    02:00 +4°C° 0 mm 1 mps 649 mmHg 75%
    03:00 +4°C° 0 mm 1 mps 649 mmHg 75%
    04:00 +4°C° 0 mm 1 mps 649 mmHg 76%
    05:00 +4°C° 0 mm 1 mps 649 mmHg 75%
    06:00 +5°C° 0 mm 1 mps 649 mmHg 75%
    07:00 +5°C° 0 mm 0 mps 650 mmHg 73%
    08:00 +7°C° 0 mm 0 mps 650 mmHg 70%
    09:00 +10°C° 0 mm 1 mps 651 mmHg 66%
    10:00 +11°C° 0 mm 1 mps 651 mmHg 62%
    11:00 +12°C° 0 mm 1 mps 651 mmHg 58%
    12:00 +13°C° 0 mm 1 mps 651 mmHg 54%
    13:00 +14°C° 0 mm 1 mps 652 mmHg 48%
    14:00 +14°C° 0 mm 2 mps 651 mmHg 49%
    15:00 +14°C° 0 mm 2 mps 651 mmHg 51%
    16:00 +14°C° 0 mm 2 mps 651 mmHg 52%
    17:00 +12°C° 0 mm 2 mps 650 mmHg 60%
    18:00 +10°C° 0 mm 1 mps 650 mmHg 69%
    19:00 +7°C° 0 mm 1 mps 649 mmHg 77%
    20:00 +7°C° 0 mm 1 mps 649 mmHg 78%
    21:00 +6°C° 0 mm 1 mps 649 mmHg 80%
    22:00 +5°C° 0 mm 1 mps 649 mmHg 81%
    23:00 +5°C° 0 mm 1 mps 649 mmHg 81%

    Tomorrow, 10 April, Friday

    Time Temperature Precipitation Wind Pressure Humidity
    00:00 +5°C° 0 mm 1 mps 649 mmHg 82%
    01:00 +4°C° 0 mm 1 mps 650 mmHg 82%
    02:00 +4°C° 0 mm 1 mps 649 mmHg 82%
    03:00 +4°C° 0 mm 1 mps 649 mmHg 83%
    04:00 +3°C° 0 mm 1 mps 649 mmHg 83%
    05:00 +4°C° 0 mm 1 mps 649 mmHg 81%
    06:00 +5°C° 0 mm 1 mps 650 mmHg 79%
    07:00 +5°C° 0 mm 1 mps 650 mmHg 77%
    08:00 +8°C° 0 mm 1 mps 651 mmHg 70%
    09:00 +10°C° 0 mm 1 mps 651 mmHg 63%
    10:00 +12°C° 0 mm 1 mps 652 mmHg 56%
    11:00 +13°C° 0 mm 1 mps 652 mmHg 52%
    12:00 +14°C° 0 mm 1 mps 652 mmHg 49%
    13:00 +15°C° 0 mm 1 mps 652 mmHg 46%
    14:00 +15°C° 0 mm 1 mps 652 mmHg 48%
    15:00 +15°C° 0 mm 2 mps 651 mmHg 49%
    16:00 +15°C° 0 mm 2 mps 651 mmHg 50%
    17:00 +12°C° 0 mm 1 mps 650 mmHg 61%
    18:00 +10°C° 0 mm 1 mps 650 mmHg 71%
    19:00 +8°C° 0 mm 1 mps 649 mmHg 81%
    20:00 +7°C° 0 mm 1 mps 649 mmHg 83%
    21:00 +6°C° 0 mm 1 mps 649 mmHg 85%
    22:00 +6°C° 0 mm 1 mps 649 mmHg 87%
    23:00 +5°C° 0 mm 1 mps 649 mmHg 87%

    Day after tomorrow, 11 April, Saturday

    Time Temperature Precipitation Wind Pressure Humidity
    00:00 +5°C° 0 mm 1 mps 649 mmHg 88%
    01:00 +5°C° 0 mm 1 mps 649 mmHg 88%
    02:00 +4°C° 0 mm 1 mps 649 mmHg 88%
    03:00 +4°C° 0 mm 1 mps 649 mmHg 88%
    04:00 +4°C° 0 mm 1 mps 649 mmHg 89%
    05:00 +5°C° 0 mm 1 mps 649 mmHg 87%
    06:00 +4°C° 0 mm 0 mps 649 mmHg 85%
    07:00 +5°C° 0 mm 0 mps 649 mmHg 83%
    08:00 +8°C° 0 mm 1 mps 650 mmHg 75%
    09:00 +10°C° 0 mm 1 mps 651 mmHg 68%
    10:00 +13°C° 0 mm 1 mps 651 mmHg 60%
    11:00 +13°C° 0 mm 1 mps 651 mmHg 56%
    12:00 +14°C° 0 mm 1 mps 651 mmHg 53%
    13:00 +15°C° 0 mm 2 mps 651 mmHg 50%
    14:00 +15°C° 0 mm 2 mps 651 mmHg 50%
    15:00 +15°C° 0 mm 2 mps 651 mmHg 51%
    16:00 +14°C° 0 mm 2 mps 650 mmHg 52%
    17:00 +12°C° 0 mm 1 mps 650 mmHg 62%
    18:00 +10°C° 0 mm 1 mps 649 mmHg 72%
    19:00 +8°C° 0 mm 1 mps 648 mmHg 83%
    20:00 +8°C° 0 mm 1 mps 648 mmHg 84%
    21:00 +7°C° 0 mm 1 mps 648 mmHg 85%
    22:00 +6°C° 0 mm 1 mps 648 mmHg 87%
    23:00 +6°C° 0 mm 1 mps 648 mmHg 85%

    12 April, Sunday

    Time Temperature Precipitation Wind Pressure Humidity
    00:00 +6°C° 0 mm 1 mps 648 mmHg 84%
    01:00 +5°C° 0 mm 1 mps 648 mmHg 83%
    02:00 +5°C° 0 mm 1 mps 648 mmHg 81%
    03:00 +5°C° 0 mm 1 mps 647 mmHg 79%
    04:00 +5°C° 0 mm 1 mps 647 mmHg 78%
    05:00 +5°C° 0 mm 1 mps 647 mmHg 76%
    06:00 +6°C° 0 mm 1 mps 647 mmHg 74%
    07:00 +7°C° 0 mm 1 mps 647 mmHg 71%
    08:00 +9°C° 0 mm 1 mps 648 mmHg 65%
    09:00 +11°C° 0 mm 1 mps 648 mmHg 58%
    10:00 +13°C° 0 mm 1 mps 648 mmHg 51%
    11:00 +14°C° 0.1 mm 1 mps 648 mmHg 49%
    12:00 +15°C° 0.1 mm 1 mps 648 mmHg 46%
    13:00 +15°C° 0.1 mm 1 mps 648 mmHg 44%
    14:00 +15°C° 0.2 mm 1 mps 647 mmHg 47%
    15:00 +14°C° 0.2 mm 1 mps 647 mmHg 50%
    16:00 +14°C° 0.2 mm 1 mps 646 mmHg 53%
    17:00 +12°C° 0.6 mm 1 mps 645 mmHg 61%
    18:00 +10°C° 0.6 mm 1 mps 644 mmHg 69%
    19:00 +8°C° 0.6 mm 1 mps 644 mmHg 76%
    20:00 +7°C° 0.5 mm 1 mps 644 mmHg 79%
    21:00 +6°C° 0.5 mm 1 mps 644 mmHg 81%
    22:00 +5°C° 0.5 mm 1 mps 644 mmHg 84%
    23:00 +5°C° 0 mm 1 mps 643 mmHg 83%

    13 April, Monday

    Time Temperature Precipitation Wind Pressure Humidity
    00:00 +4°C° 0 mm 1 mps 643 mmHg 82%
    01:00 +3°C° 0 mm 2 mps 643 mmHg 82%
    02:00 +4°C° 0 mm 1 mps 643 mmHg 83%
    03:00 +4°C° 0 mm 1 mps 643 mmHg 84%
    04:00 +3°C° 0 mm 1 mps 643 mmHg 85%
    05:00 +4°C° 0 mm 1 mps 643 mmHg 83%
    06:00 +4°C° 0 mm 1 mps 643 mmHg 82%
    07:00 +4°C° 0 mm 0 mps 643 mmHg 80%
    08:00 +7°C° 0 mm 1 mps 644 mmHg 72%
    09:00 +8°C° 0 mm 1 mps 644 mmHg 64%
    10:00 +10°C° 0 mm 1 mps 645 mmHg 56%
    11:00 +11°C° 0 mm 1 mps 645 mmHg 53%
    12:00 +12°C° 0 mm 1 mps 644 mmHg 51%
    13:00 +12°C° 0 mm 1 mps 644 mmHg 48%
    14:00 +12°C° 0.1 mm 1 mps 644 mmHg 51%
    15:00 +12°C° 0.1 mm 1 mps 643 mmHg 54%
    16:00 +11°C° 0.1 mm 1 mps 643 mmHg 57%
    17:00 +10°C° 0.2 mm 1 mps 642 mmHg 65%
    18:00 +9°C° 0.2 mm 1 mps 642 mmHg 72%
    19:00 +7°C° 0.2 mm 1 mps 641 mmHg 79%
    20:00 +7°C° 0.2 mm 1 mps 641 mmHg 82%
    21:00 +6°C° 0.2 mm 1 mps 642 mmHg 84%
    22:00 +6°C° 0.2 mm 1 mps 642 mmHg 87%
    23:00 +6°C° 0.6 mm 1 mps 642 mmHg 90%

    14 April, Tuesday

    Time Temperature Precipitation Wind Pressure Humidity
    00:00 +5°C° 0.6 mm 1 mps 642 mmHg 93%
    01:00 +5°C° 0.6 mm 1 mps 642 mmHg 96%
    02:00 +4°C° 0.6 mm 1 mps 642 mmHg 96%
    03:00 +3°C° 0.6 mm 2 mps 642 mmHg 97%
    04:00 +1°C° 0.6 mm 3 mps 642 mmHg 97%
    05:00 +1°C° 0.3 mm 2 mps 642 mmHg 97%
    06:00 +1°C° 0.3 mm 2 mps 642 mmHg 97%
    07:00 -1°C° 0.3 mm 2 mps 642 mmHg 97%
    08:00 +1°C° 0 mm 2 mps 642 mmHg 94%
    09:00 +1°C° 0 mm 2 mps 642 mmHg 92%
    10:00 +2°C° 0 mm 2 mps 642 mmHg 89%
    11:00 +2°C° 0 mm 3 mps 642 mmHg 83%
    12:00 +3°C° 0 mm 3 mps 642 mmHg 76%
    13:00 +4°C° 0 mm 3 mps 643 mmHg 70%
    14:00 +5°C° 0 mm 3 mps 642 mmHg 64%
    15:00 +5°C° 0 mm 4 mps 642 mmHg 59%
    16:00 +6°C° 0 mm 4 mps 642 mmHg 53%
    17:00 +4°C° 0 mm 3 mps 641 mmHg 59%
    18:00 +2°C° 0 mm 3 mps 641 mmHg 64%
    19:00 0°C° 0 mm 3 mps 640 mmHg 70%
    20:00 +1°C° 0 mm 2 mps 640 mmHg 72%
    21:00 -1°C° 0 mm 2 mps 640 mmHg 75%
    22:00 -2°C° 0 mm 2 mps 640 mmHg 77%
    23:00 -2°C° 0 mm 2 mps 640 mmHg 79%
    Show more